Terminal Aerodrome Forecast
Issued by NWS Jackson, MS

Home | Current Version | Previous Version | Text Only | Print | Product List | Glossary On
Versions: 1 2 3 4 5 6 7 8 9 10 11 12 13 14
000
FTUS44 KJAN 251133
TAFHBG
TAF
KHBG 251133Z 2512/2612 19003KT P6SM SKC
     FM251500 20010KT P6SM SKC=

USA.gov is the U.S. government's official web portal to all federal, state and local government web resources and services.